Russellville, AR

4:23 AM CDT on October 15, 2019 (GMT -0500)
Russellville Regional

Weather History for KRUE - August, 2019

Change the Weather History Date:

Wednesday, August 14, 2019

  Actual Average (WUND) Record (WUND)
Temperature  
Mean Temperature 83 °F -  
Max Temperature 93 °F - - (-1)
Min Temperature 73 °F - - (-1)
Cooling Degree Days 18    
Growing Degree Days 33 (Base 50)    
Moisture  
Dew Point 72 °F    
Average Humidity 70    
Maximum Humidity 93    
Minimum Humidity 44    
Precipitation  
Precipitation 0.00 in - - ()
Sea Level Pressure  
Sea Level Pressure 29.97 in    
Wind  
Wind Speed 3 mph (North)    
Max Wind Speed 6 mph    
Max Gust Speed -    
Visibility 10 miles    
Events      
Averages and records for this station are not official NWS values.
T = Trace of Precipitation, MM = Missing Value Source: NWS Daily Summary

Daily Weather History Graph

Daily Weather History Graph

Search for Another Location

Airport or City:

Astronomy

Aug. 14, 2019 Rise Set
Actual Time 6:31 AM CDT 8:02 PM CDT
Civil Twilight 6:04 AM CDT 8:29 PM CDT
Nautical Twilight 5:31 AM CDT 9:01 PM CDT
Astronomical Twilight 4:57 AM CDT 9:35 PM CDT
Moon 7:54 PM CDT (8/14) 5:32 AM CDT (8/14)
Length of Visible Light 14h 25m
Length of Day
13h 31m
Waxing Gibbous, 99% of the Moon is Illuminated
Aug 14
Waxing Gibbous
Aug 15
Full
Aug 23
Last Quarter
Aug 30
New
Sep 5
First Quarter

Hourly Weather History & Observations

Time (CDT) Temp. Heat Index Dew Point Humidity Pressure Visibility Wind Dir Wind Speed Gust Speed Precip Events Conditions
12:53 AM 82.9 °F 88.8 °F 73.0 °F 72% 29.95 in 10.0 mi North 3.5 mph - N/A   Mostly Cloudy
1:53 AM 78.1 °F - 73.9 °F 87% 29.95 in 10.0 mi North 4.6 mph - N/A   Clear
2:53 AM 78.1 °F - 73.0 °F 84% 29.94 in 10.0 mi North 5.8 mph - N/A   Clear
3:53 AM 78.1 °F - 72.0 °F 81% 29.94 in 10.0 mi Calm Calm - N/A   Clear
5:53 AM 73.0 °F - 71.1 °F 93% 29.94 in 10.0 mi Calm Calm - N/A   Clear
6:53 AM 75.0 °F - 72.0 °F 90% 29.96 in 10.0 mi Calm Calm - N/A   Clear
7:53 AM 78.1 °F - 72.0 °F 81% 29.98 in 10.0 mi NNW 4.6 mph - N/A   Clear
8:53 AM 82.0 °F 86.7 °F 72.0 °F 71% 30.01 in 10.0 mi North 5.8 mph - N/A   Clear
9:53 AM 84.9 °F 91.4 °F 73.0 °F 67% 30.02 in 10.0 mi Calm Calm - N/A   Clear
10:53 AM 87.1 °F 93.6 °F 72.0 °F 61% 30.02 in 10.0 mi Variable 4.6 mph - N/A   Partly Cloudy
11:53 AM 89.1 °F 96.0 °F 72.0 °F 57% 30.01 in 10.0 mi Variable 3.5 mph - N/A   Partly Cloudy
12:53 PM 90.0 °F 96.4 °F 71.1 °F 54% 30.00 in 10.0 mi Variable 4.6 mph - N/A   Partly Cloudy
1:53 PM 91.0 °F 96.6 °F 70.0 °F 50% 29.98 in 10.0 mi WSW 3.5 mph - N/A   Partly Cloudy
2:53 PM 93.0 °F 97.9 °F 69.1 °F 45% 29.96 in 10.0 mi Variable 4.6 mph - N/A   Partly Cloudy
3:53 PM 93.0 °F 100.1 °F 71.1 °F 49% 29.93 in 10.0 mi Variable 3.5 mph - N/A   Mostly Cloudy
4:53 PM 93.0 °F 100.1 °F 71.1 °F 49% 29.91 in 10.0 mi Calm Calm - N/A   Partly Cloudy
5:53 PM 93.0 °F 97.4 °F 68.0 °F 44% 29.91 in 10.0 mi Calm Calm - N/A   Partly Cloudy
6:53 PM 91.0 °F 98.2 °F 72.0 °F 53% 29.92 in 10.0 mi Calm Calm - N/A   Clear
7:53 PM 82.9 °F 88.8 °F 73.0 °F 72% 29.93 in 10.0 mi East 3.5 mph - N/A   Partly Cloudy
8:53 PM 80.1 °F 84.2 °F 73.0 °F 79% 29.95 in 10.0 mi Calm Calm - N/A   Clear
9:53 PM 77.0 °F - 72.0 °F 84% 29.99 in 10.0 mi Calm Calm - N/A   Clear
10:53 PM 75.9 °F - 72.0 °F 87% 30.00 in 10.0 mi Calm Calm - N/A   Clear
11:53 PM 75.0 °F - 72.0 °F 90% 30.01 in 10.0 mi Calm Calm - N/A   Clear